Temperature
16 16 16 17 17 16 15 14 14 15 15 15 15 15 16 16 16 16 17 17 17 17 17 17 17 17 17 17 16 16 16 15 15 15 14 14 14 14 13 13 13 13 13 13
16 16 16 16 16 16 15 15 14 14 15 15 15 15 15 16 15 16 16 17 17 17 17 16 16 16 16 16 16 16 15 15 15 15 14 14 14 14 13 13 13 13 13 13
14 15 15 15 15 16 15 15 15 15 15 14 14 14 15 16 16 16 16 17 17 17 17 16 16 16 16 16 16 16 15 15 15 14 14 14 14 14 13 13 13 13 13 12
13 14 15 15 16 16 15 15 14 14 14 14 14 15 16 16 16 16 16 16 16 16 16 16 16 16 16 15 15 15 15 15 14 14 14 14 14 14 13 13 13 13 13 12
12 13 14 15 15 15 15 15 14 14 14 14 15 15 15 16 16 16 16 16 16 16 16 16 16 16 16 15 15 15 15 14 14 14 14 14 14 13 13 13 13 13 13 12
11 13 14 14 15 15 15 14 14 13 13 13 14 12 14 16 16 16 16 16 16 16 16 16 16 15 15 15 15 14 14 14 14 14 13 13 13 13 13 13 13 13 12 12
11 12 13 13 14 14 14 14 14 14 14 13 13 13 15 15 15 15 16 16 15 15 15 15 15 15 15 15 14 14 14 14 14 13 13 13 13 13 13 12 12 12 12 12
10 12 13 13 13 13 13 14 14 14 14 14 14 14 14 15 15 15 15 15 15 15 15 15 15 14 14 14 14 14 14 14 13 13 13 13 12 12 12 12 12 12 12 12
11 12 12 13 13 14 14 14 14 14 14 14 14 14 14 14 14 14 14 14 14 14 14 14 14 14 14 14 14 14 13 13 13 13 13 12 12 12 12 12 12 11 11 11
10 11 12 13 13 14 14 14 14 14 14 14 14 14 14 14 14 14 14 14 14 14 14 14 14 14 14 13 13 13 13 13 13 12 12 12 12 12 12 11 11 11 11 11
9 10 11 12 13 13 13 13 13 13 13 13 13 13 13 13 13 13 13 13 13 13 14 14 13 13 13 13 13 13 12 12 12 12 12 11 11 11 11 11 11 11 10 10
9 11 10 12 13 13 12 13 13 13 13 13 13 13 13 13 13 13 13 13 13 13 13 13 13 13 13 12 12 12 12 12 12 12 11 11 11 11 10 10 10 10 10 10
12 12 12 12 12 12 12 12 12 12 12 12 13 13 13 12 12 12 12 12 12 12 12 12 12 12 12 12 12 12 12 11 11 11 11 11 11 10 10 10 10 10 9 9
11 11 11 11 11 12 12 12 12 12 12 12 12 12 12 12 12 12 12 12 12 12 12 12 12 12 12 11 11 11 11 11 11 11 10 10 10 10 10 10 9 9 9 9
11 11 11 11 11 11 11 11 11 11 11 11 11 11 11 11 11 11 11 11 11 11 11 11 11 11 11 11 11 11 11 10 10 10 10 10 10 10 9 9 9 9 9 9
11 11 11 11 11 11 11 11 11 11 11 11 11 11 11 11 11 11 11 11 11 11 11 11 11 11 10 10 10 10 10 10 10 9 9 9 9 9 9 9 9 8 8 8
10 10 10 10 10 10 10 10 10 10 10 10 10 10 10 10 10 10 10 10 10 10 10 10 10 10 10 10 10 10 10 9 9 9 9 9 9 9 8 8 8 8 8 7
10 10 10 10 10 10 10 10 10 10 10 10 10 10 10 10 10 10 10 9 9 9 9 9 9 9 9 9 9 9 9 9 9 9 8 8 8 8 8 8 8 8 7 7
10 10 10 10 10 10 10 9 9 9 9 9 9 9 9 9 9 9 9 9 9 9 9 9 9 9 9 9 9 8 8 8 8 8 8 8 8 8 7 7 7 7 7 7
9 9 9 9 9 9 9 9 9 9 9 9 9 9 8 8 8 8 8 8 8 8 8 8 8 8 8 8 8 8 8 8 8 7 7 7 7 7 7 7 7 7 6 6
9 9 9 9 8 8 8 8 8 8 8 8 8 8 8 8 8 8 8 8 8 8 7 7 8 8 8 8 7 7 7 7 7 7 7 7 7 6 6 6 6 6 6 6
9 8 8 8 8 8 8 8 8 8 8 8 7 7 7 7 7 7 7 7 7 7 7 7 7 7 7 7 7 7 7 6 6 6 6 6 6 6 6 6 6 5 5 5
8 8 8 8 8 7 7 7 7 7 7 7 7 7 7 7 6 6 6 7 6 6 6 6 6 6 6 6 6 6 6 6 6 6 5 5 5 5 5 5 5 5 5 5
7 7 7 7 7 7 7 7 7 7 6 6 6 6 6 6 6 6 6 6 6 6 6 6 6 5 5 5 5 5 5 5 5 5 5 5 5 5 5 5 5 5 4 4
7 7 7 7 6 6 6 6 6 6 6 6 6 6 6 6 5 5 5 5 5 5 5 5 5 5 5 5 5 4 4 4 4 4 4 4 4 4 4 4 4 4 4 4
6 6 6 6 6 6 5 5 5 5 5 5 5 5 5 5 5 5 5 5 5 5 5 4 4 4 4 4 4 4 4 4 4 4 4 4 4 4 4 4 4 4 3 3
5 5 5 5 5 5 5 5 5 5 5 5 4 5 5 5 5 5 5 4 4 4 4 4 4 3 3 3 3 3 3 3 3 3 3 3 3 3 3 3 3 3 3 3
Wind_Speed
5 4 3 3 4 4 5 7 7 7 7 9 7 7 5 3 1 0 0 0 2 2 2 2 2 2 3 4 4 4 4 5 5 5 5 5 5 5 5 5 5 5 4 3
3 2 2 3 5 5 5 5 6 5 7 6 6 3 3 2 1 1 1 2 2 2 2 2 3 3 3 4 4 4 4 5 4 4 4 5 5 5 5 4 4 4 4 5
4 4 2 5 6 5 3 3 4 5 7 5 4 4 4 3 2 3 3 2 3 3 4 4 3 3 4 4 3 4 4 4 4 4 4 4 5 5 5 5 4 4 4 4
2 0 5 6 3 4 4 3 3 4 5 4 5 5 3 2 2 3 3 3 3 3 3 3 2 2 3 2 3 3 3 3 4 4 4 3 4 5 5 4 4 4 5 5
3 3 6 5 2 3 4 4 2 3 5 4 3 3 3 3 2 4 4 3 3 3 2 2 2 2 2 2 2 3 3 4 4 4 4 3 4 4 4 4 4 4 3 4
3 4 6 5 3 2 3 3 3 2 3 3 3 2 5 5 3 4 3 2 1 1 0 1 2 1 2 2 3 4 5 5 4 4 4 4 4 4 3 3 3 3 2 3
5 5 6 5 4 2 4 5 4 3 3 1 2 5 5 5 4 3 3 2 1 1 1 2 2 1 2 2 4 5 4 3 3 4 4 4 3 3 3 3 3 2 2 2
4 5 6 3 3 4 4 3 2 2 2 2 4 5 4 3 4 3 3 2 1 1 2 2 1 2 2 4 5 3 2 3 3 3 3 3 3 3 3 3 3 2 2 2
6 5 3 1 2 2 2 2 2 2 3 3 3 4 4 3 4 3 3 3 2 2 2 2 1 2 4 5 3 2 3 3 3 2 3 3 4 4 2 3 3 3 2 2
3 4 4 4 2 2 1 2 3 3 3 2 3 4 4 3 4 3 3 3 2 1 2 3 3 3 4 3 2 3 3 3 3 3 2 2 3 3 3 4 3 3 3 3
4 6 5 4 3 3 4 4 4 4 3 3 3 4 4 3 4 4 3 3 2 2 3 4 4 4 3 2 2 3 3 3 3 3 3 3 2 3 4 4 5 5 4 4
6 6 4 7 6 5 5 6 5 4 5 4 4 4 4 4 4 3 3 3 2 3 3 4 3 4 3 3 3 4 4 4 3 3 3 3 3 1 1 2 3 4 4 4
7 5 5 6 6 5 5 6 6 5 5 6 5 4 4 4 3 3 3 3 3 4 4 3 3 4 3 3 3 4 5 4 3 3 3 3 3 3 2 1 0 1 3 3
6 4 5 5 6 7 6 6 5 5 5 4 4 4 3 3 3 3 4 4 4 3 3 3 3 4 4 3 2 3 3 4 3 3 3 4 4 4 3 3 1 1 2 2
8 7 7 7 6 5 4 3 3 5 5 5 4 4 3 4 4 5 5 4 3 3 3 3 4 5 3 2 3 3 3 2 3 3 3 3 3 3 3 3 3 2 1 1
5 5 5 5 5 5 4 4 4 5 5 5 4 5 5 5 5 5 5 3 3 4 4 4 5 5 3 3 3 3 3 4 3 3 3 3 3 3 3 3 3 3 3 2
4 5 4 5 5 5 5 5 5 5 5 5 5 5 4 4 4 5 5 5 4 5 4 5 5 4 3 3 3 3 2 3 4 3 3 3 4 4 4 4 4 4 4 4
7 7 7 7 7 6 5 5 4 5 5 5 5 4 3 3 5 6 6 4 4 4 5 5 4 3 3 3 3 3 2 3 3 3 3 4 4 4 4 4 4 4 3 3
3 4 4 4 5 4 4 4 4 4 5 4 3 4 5 5 5 5 5 4 4 5 6 4 5 3 3 4 4 3 3 3 3 3 3 4 4 3 4 4 4 4 4 3
3 3 3 4 3 3 4 4 4 4 4 4 3 3 4 5 5 5 4 4 5 5 5 4 4 3 3 4 4 2 3 3 3 3 3 3 4 4 4 4 4 4 4 4
4 3 3 3 4 4 4 4 4 4 4 4 4 4 5 5 5 4 4 5 6 4 4 4 3 3 3 3 3 2 3 3 3 3 3 3 4 4 4 4 4 4 4 4
3 3 4 4 4 5 5 4 4 5 4 4 4 4 5 5 5 4 5 5 5 4 3 2 2 3 3 3 1 2 3 3 3 3 3 3 3 4 4 4 4 4 4 4
4 4 4 4 5 5 5 4 4 4 5 5 5 5 5 5 4 4 5 4 3 4 3 2 3 4 3 1 1 2 2 3 3 3 3 3 3 4 4 4 4 3 3 3
4 4 5 5 3 3 4 5 4 4 4 5 5 5 5 4 4 4 4 5 5 5 3 3 4 4 2 1 1 2 2 3 3 2 3 3 3 3 3 3 3 3 3 4
4 4 4 4 4 4 5 4 4 4 4 4 5 5 4 4 4 5 4 4 4 4 2 3 4 3 2 1 2 2 2 2 2 2 2 2 3 3 3 3 3 3 3 3
4 4 4 5 4 4 3 3 3 4 3 4 5 4 4 3 4 3 3 3 3 3 2 2 2 2 2 2 2 2 2 3 2 2 2 2 3 3 3 3 3 3 3 3
4 3 3 3 3 3 3 3 3 4 4 4 5 5 4 4 3 3 3 2 2 2 2 2 2 2 2 2 2 2 2 2 2 2 2 2 2 3 3 3 3 3 2 2
Wind_Direction
235 239 219 229 240 200 192 197 204 237 245 272 284 285 289 295 309 21 26 160 190 190 206 225 236 228 212 213 203 187 182 197 211 210 202 199 202 206 204 202 208 205 200 206
275 264 232 253 259 227 218 213 222 249 264 269 289 295 312 313 300 260 247 234 237 224 211 226 230 228 222 219 205 185 190 201 202 190 192 198 202 201 198 204 206 198 202 204
258 286 331 265 244 215 210 207 196 230 254 287 305 295 270 264 258 256 254 231 224 227 225 229 232 222 218 220 200 183 195 199 189 185 192 203 199 193 201 205 199 203 210 207
217 54 238 241 236 199 194 221 218 244 269 268 265 273 259 239 238 259 259 243 232 239 244 240 231 225 213 194 180 183 192 203 200 189 195 198 192 200 208 202 197 204 211 212
161 220 265 284 267 183 198 255 272 259 290 307 319 348 333 315 277 255 247 241 236 233 233 223 225 219 179 187 190 192 201 207 206 194 191 190 196 206 205 192 197 203 202 201
161 199 237 250 276 255 155 253 304 278 288 310 37 9 288 308 307 287 287 273 261 271 245 227 251 188 162 200 203 220 224 216 203 190 188 195 202 206 199 184 191 190 206 211
189 220 253 263 285 102 163 250 280 255 266 248 203 228 265 296 300 295 296 287 260 203 225 246 237 163 190 214 230 233 224 204 192 191 193 195 189 186 175 170 169 181 202 230
178 210 248 295 105 154 221 257 272 265 255 242 257 277 296 305 306 314 320 311 274 216 261 270 211 174 217 239 245 228 197 192 197 196 195 188 175 181 173 163 164 184 199 243
199 216 254 269 188 224 210 241 263 267 273 254 273 288 299 302 296 298 296 299 292 248 266 288 249 203 223 251 240 198 186 196 205 200 193 178 174 177 172 168 173 192 199 224
268 266 277 273 277 321 299 267 274 265 268 264 261 276 288 298 298 296 298 293 297 287 271 276 272 252 240 250 210 191 198 204 197 187 191 187 179 180 181 188 191 198 209 223
265 281 309 298 294 295 296 301 308 302 272 255 255 277 275 281 285 287 295 296 282 254 258 269 274 271 260 237 201 202 208 209 201 193 188 193 198 202 202 210 205 200 210 210
240 242 235 266 279 291 292 294 292 295 297 287 251 255 267 275 278 282 286 287 288 284 279 279 276 274 264 231 204 201 212 212 206 201 196 190 189 216 270 223 219 213 211 208
238 251 245 263 273 274 267 273 279 276 274 279 272 254 252 265 273 283 285 277 271 271 277 287 286 285 279 248 218 211 215 213 205 200 198 192 186 187 202 336 252 233 225 219
248 251 267 268 272 276 273 277 283 287 283 272 265 263 259 265 274 275 269 266 268 274 283 285 284 283 280 252 227 222 216 216 208 201 201 196 192 189 184 183 208 271 260 240
258 242 244 261 272 275 277 287 302 301 299 295 284 274 267 260 263 266 265 267 271 276 279 278 279 285 284 246 228 227 215 211 207 200 199 196 188 185 187 189 196 215 273 280
266 267 254 253 261 270 274 270 270 278 285 285 281 279 273 265 268 275 278 264 249 260 266 264 268 278 272 239 226 232 224 221 210 194 188 187 184 186 193 194 197 200 211 228
240 258 257 259 259 259 250 248 250 261 274 283 282 280 285 287 287 285 284 272 252 253 256 253 263 274 262 237 225 232 227 219 213 205 196 198 193 195 198 198 202 207 217 217
228 237 241 238 244 252 255 253 256 263 266 274 288 291 287 277 272 276 279 281 276 280 274 266 263 267 253 238 225 222 218 217 210 209 207 207 205 201 200 205 211 212 218 214
249 252 260 259 250 237 241 250 256 261 265 267 277 279 276 270 268 274 279 273 267 274 279 269 271 268 257 252 246 221 213 214 216 217 214 210 210 204 205 210 213 211 208 207
268 267 270 280 282 263 256 258 257 264 267 260 262 275 282 280 277 278 272 263 261 265 275 278 269 255 252 249 247 233 219 216 216 218 215 210 208 210 210 211 211 211 211 212
248 258 270 278 286 286 274 266 265 270 273 264 255 259 265 271 271 267 268 278 282 276 272 275 272 261 255 255 242 235 224 218 215 215 216 218 217 214 212 210 213 215 217 221
244 248 256 262 269 280 280 272 266 267 273 275 273 269 271 275 276 273 262 260 274 280 280 259 260 274 282 275 237 233 228 219 217 214 214 215 215 214 214 215 219 223 224 223
252 253 258 261 261 270 284 283 272 266 266 268 269 268 266 267 265 262 278 274 274 276 282 261 276 284 290 287 253 246 237 225 221 221 221 221 221 220 220 220 222 222 226 230
247 249 258 265 267 271 279 284 283 277 272 273 270 265 264 273 278 261 260 279 285 285 280 273 277 279 289 285 257 260 251 238 229 226 228 228 228 224 222 222 229 232 231 226
251 257 261 261 261 262 263 276 290 287 285 286 283 281 275 258 259 272 275 274 277 286 281 276 277 283 283 262 258 268 264 248 244 239 232 237 236 232 228 225 228 233 229 226
251 255 257 250 248 253 254 257 268 275 278 287 292 289 287 282 273 274 275 274 267 278 283 278 268 266 269 268 268 271 273 272 268 259 249 246 243 238 236 234 232 232 231 230
263 260 261 270 267 250 244 245 254 266 268 269 282 287 286 286 283 281 281 281 277 277 283 281 270 257 253 260 267 269 267 261 253 248 248 248 246 242 239 237 236 235 234 229
Height
1511 1509 1509 1508 1509 1511 1514 1517 1522 1517 1513 1505 1500 1498 1495 1493 1493 1492 1493 1493 1494 1495 1497 1498 1499 1500 1501 1503 1504 1505 1506 1507 1508 1509 1510 1511 1511 1512 1513 1514 1514 1515 1515 1515
1511 1508 1508 1510 1507 1507 1509 1510 1512 1511 1508 1499 1497 1496 1494 1493 1492 1491 1491 1492 1493 1494 1495 1496 1497 1498 1499 1500 1501 1502 1503 1504 1505 1506 1506 1507 1508 1508 1509 1510 1511 1511 1512 1512
1517 1511 1509 1513 1505 1504 1505 1505 1506 1508 1503 1497 1496 1494 1492 1492 1491 1491 1490 1491 1492 1492 1493 1494 1495 1495 1496 1497 1498 1499 1500 1501 1502 1502 1503 1504 1504 1505 1505 1506 1507 1507 1508 1509
1519 1515 1519 1507 1497 1498 1500 1500 1501 1499 1497 1495 1494 1491 1490 1490 1490 1489 1489 1489 1490 1490 1491 1492 1493 1493 1494 1495 1495 1496 1497 1498 1498 1499 1499 1500 1500 1501 1502 1502 1503 1503 1504 1505
1520 1519 1513 1503 1497 1497 1499 1499 1497 1496 1494 1493 1491 1490 1489 1489 1489 1488 1488 1488 1488 1489 1489 1490 1490 1490 1491 1492 1492 1493 1493 1494 1495 1496 1496 1496 1497 1497 1498 1498 1499 1500 1500 1501
1518 1516 1515 1503 1494 1493 1496 1501 1496 1494 1493 1492 1491 1495 1491 1488 1487 1487 1486 1486 1486 1487 1487 1487 1488 1488 1488 1488 1489 1489 1490 1491 1491 1492 1492 1493 1493 1493 1494 1494 1495 1495 1496 1497
1515 1513 1506 1496 1492 1493 1503 1501 1494 1492 1492 1491 1491 1491 1489 1487 1486 1485 1485 1484 1485 1485 1485 1485 1485 1485 1485 1485 1485 1486 1487 1487 1488 1488 1489 1489 1490 1490 1490 1491 1491 1491 1492 1492
1512 1512 1507 1493 1492 1496 1497 1493 1492 1490 1490 1489 1488 1487 1486 1485 1484 1483 1483 1483 1482 1482 1482 1483 1483 1483 1482 1482 1482 1483 1483 1484 1484 1485 1485 1486 1486 1486 1487 1487 1487 1487 1488 1488
1504 1502 1495 1492 1492 1492 1492 1491 1490 1489 1488 1487 1486 1485 1484 1483 1482 1481 1481 1481 1481 1480 1480 1480 1480 1480 1479 1479 1479 1479 1480 1480 1480 1481 1481 1482 1482 1483 1483 1483 1483 1483 1484 1484
1499 1494 1492 1491 1490 1490 1490 1489 1489 1488 1487 1486 1484 1483 1482 1481 1480 1479 1479 1478 1478 1478 1477 1477 1477 1476 1476 1476 1476 1476 1476 1476 1476 1476 1477 1477 1478 1479 1479 1480 1480 1480 1480 1480
1497 1493 1490 1489 1488 1488 1488 1487 1486 1485 1484 1484 1483 1481 1480 1479 1478 1477 1476 1476 1475 1475 1474 1473 1473 1473 1473 1473 1472 1472 1472 1472 1472 1472 1473 1473 1474 1474 1475 1476 1476 1476 1476 1476
1494 1490 1490 1488 1487 1486 1486 1484 1483 1483 1481 1480 1480 1479 1478 1476 1475 1474 1473 1473 1472 1471 1471 1470 1469 1469 1469 1468 1468 1468 1467 1467 1467 1468 1468 1469 1469 1470 1470 1472 1472 1472 1472 1472
1487 1486 1486 1484 1484 1484 1483 1482 1481 1480 1479 1477 1476 1476 1474 1473 1472 1471 1470 1470 1469 1468 1467 1466 1466 1465 1465 1464 1464 1464 1463 1463 1463 1464 1464 1464 1465 1465 1465 1466 1467 1468 1468 1468
1483 1483 1482 1481 1481 1480 1479 1478 1477 1476 1475 1474 1473 1472 1471 1470 1469 1468 1467 1467 1466 1465 1464 1463 1462 1461 1461 1461 1460 1460 1459 1459 1459 1459 1460 1460 1460 1461 1461 1462 1462 1462 1463 1463
1478 1479 1478 1477 1477 1476 1476 1475 1474 1473 1472 1470 1469 1468 1467 1467 1465 1465 1464 1463 1462 1461 1460 1459 1458 1457 1457 1456 1456 1456 1455 1455 1455 1455 1455 1456 1456 1456 1457 1458 1458 1458 1458 1458
1474 1474 1474 1473 1472 1472 1472 1471 1470 1469 1468 1467 1466 1465 1464 1463 1462 1461 1460 1459 1458 1456 1455 1454 1453 1453 1452 1452 1451 1451 1451 1451 1451 1451 1451 1451 1452 1452 1452 1453 1453 1453 1453 1454
1470 1469 1469 1469 1469 1468 1468 1467 1467 1466 1465 1463 1462 1461 1460 1458 1457 1457 1456 1455 1454 1452 1451 1450 1449 1449 1448 1447 1447 1447 1446 1446 1446 1446 1446 1446 1447 1447 1447 1448 1448 1448 1448 1449
1466 1466 1466 1466 1465 1464 1463 1463 1463 1462 1461 1460 1459 1457 1456 1455 1453 1452 1451 1450 1449 1447 1446 1446 1445 1444 1443 1443 1443 1442 1442 1441 1441 1441 1441 1441 1442 1442 1442 1442 1443 1443 1443 1444
1463 1463 1463 1462 1461 1461 1460 1459 1458 1458 1457 1456 1455 1453 1452 1451 1450 1448 1447 1445 1444 1442 1441 1441 1440 1439 1439 1438 1438 1437 1437 1436 1436 1436 1436 1436 1436 1436 1437 1437 1437 1438 1438 1438
1460 1460 1460 1459 1458 1457 1456 1455 1454 1454 1453 1452 1451 1449 1448 1447 1446 1444 1442 1440 1439 1438 1437 1436 1435 1434 1434 1433 1433 1432 1432 1431 1431 1431 1431 1431 1431 1431 1431 1432 1432 1433 1433 1433
1457 1457 1456 1455 1454 1453 1453 1452 1450 1449 1448 1447 1446 1444 1443 1442 1441 1439 1437 1435 1434 1434 1432 1431 1430 1429 1429 1428 1427 1427 1427 1426 1426 1425 1425 1425 1425 1426 1426 1426 1427 1427 1427 1427
1453 1453 1452 1452 1450 1449 1449 1448 1446 1445 1444 1443 1441 1440 1438 1437 1435 1434 1433 1432 1430 1429 1428 1427 1425 1425 1424 1423 1422 1422 1422 1421 1421 1421 1420 1420 1420 1420 1421 1421 1422 1422 1422 1422
1450 1450 1449 1448 1447 1445 1444 1443 1442 1441 1439 1438 1437 1435 1434 1432 1430 1429 1427 1427 1426 1424 1423 1422 1421 1420 1420 1419 1418 1417 1417 1416 1416 1415 1415 1415 1415 1415 1416 1416 1416 1416 1416 1416
1446 1445 1445 1444 1442 1441 1439 1439 1438 1436 1435 1434 1432 1431 1429 1427 1425 1424 1423 1422 1421 1420 1419 1418 1417 1416 1415 1414 1413 1413 1412 1411 1411 1410 1410 1410 1410 1410 1411 1411 1411 1411 1411 1411
1441 1440 1440 1439 1438 1436 1435 1434 1433 1432 1430 1429 1428 1427 1425 1423 1421 1419 1418 1417 1416 1415 1414 1413 1413 1412 1411 1410 1409 1409 1408 1407 1406 1406 1406 1405 1405 1406 1406 1406 1405 1405 1405 1405
1436 1435 1435 1434 1433 1432 1431 1430 1429 1427 1426 1424 1423 1422 1420 1419 1417 1415 1414 1413 1412 1411 1410 1409 1408 1407 1406 1406 1405 1404 1403 1403 1402 1402 1401 1401 1401 1401 1401 1401 1400 1400 1400 1400
1431 1430 1430 1429 1428 1428 1427 1426 1424 1423 1421 1420 1418 1417 1416 1414 1413 1411 1410 1408 1407 1406 1405 1404 1404 1403 1402 1401 1400 1400 1399 1399 1398 1398 1397 1397 1397 1396 1396 1396 1396 1395 1395 1395